Tracking 25648 objects as of 16-May-2022
HD Live streaming from Space Station
objects crossing your sky now

FLOCK 3P 18

Track FLOCK 3P 18 now!
10-day predictions
FLOCK 3P 18 is classified as:


NORAD ID: 41957
Int'l Code: 2017-008K
Perigee: 432.5 km
Apogee: 437.2 km
Inclination: 97.3 °
Period: 93.1 minutes
Semi major axis: 6805 km
RCS: Unknown
Launch date: February 15, 2017
Source: United States (US)
Launch site: SRIHARIKOTA (SRI)
aabbcc
Your satellite tracking list
Your tracking list is empty




NASA's NSSDC Master Catalog

Two Line Element Set (TLE):
1 41957U 17008K   22135.70129734  .00067252  00000-0  13590-2 0  9990
2 41957  97.2721 208.5360 0003496 305.5539  54.5385 15.46244112292353
Source of the keplerian elements: AFSPC